TJS-9

Last updated on Mon Nov 03 2025 00:03:00 GMT+0000 (Coordinated Universal Time)

1 50574U 21135A 25306.36379020 -.00000286 00000+0 00000+0 0 9994 2 50574 0.0934 80.3585 0003307 215.3410 14.4241 1.00271023 14150
UTC large
Height (km)
Speed (km/s)
/
Latitude / Longitude
Inclination (degrees)
Orbital Period (minutes)
Azimuth
Elevation
Range (km)
Doppler Factor

Next 0 passes for location: London (51.5072 / 0.1276)

Sorry there are no passes over London.